Regional Weather Roundup
Issued by NWS Charleston, WV

Home | Current Version | Previous Version | Graphics & Text | Print | Product List | Glossary On
Versions: 1 2 3 4 5 6 7 8 9 10 11 12 13 14 15 16 17 18 19 20 21 22 23 24 25 26 27
000
ASUS41 KRLX 180110
RWRRLX
West Virginia Regional Weather Roundup
National Weather Service Charleston WV
900 PM EDT THU AUG 17 2017

Note: "fair" indicates few or no clouds below 12,000 feet with no
significant weather and/or obstructions to visibility.

WVZ003-180200-
Northern Panhandle of West Virginia

CITY           SKY/WX    TMP DP  RH WIND       PRES   REMARKS
WHEELING       LGT RAIN  73  70  90 SW15G24   29.90R
$$

WVZ009-180200-
Northwest West Virginia

CITY           SKY/WX    TMP DP  RH WIND       PRES   REMARKS
PARKERSBURG    CLOUDY    72  70  93 S3        29.93S
$$

WVZ006-180200-
Western West Virginia

CITY           SKY/WX    TMP DP  RH WIND       PRES   REMARKS
HUNTINGTON     CLEAR     82  74  76 SW5       29.90R
$$

WVZ015-180200-
West Central West Virginia

CITY           SKY/WX    TMP DP  RH WIND       PRES   REMARKS
CHARLESTON     PTCLDY    79  74  84 S3        29.92S
$$

WVZ022-031-180200-
North Central West Virginia

CITY           SKY/WX    TMP DP  RH WIND       PRES   REMARKS
CLARKSBURG     PTCLDY    78  70  76 S5        29.93F
MORGANTOWN     PTCLDY    80  70  71 S7        29.92S
$$

WVZ025-035-042-045-180200-
Southern West Virginia

CITY           SKY/WX    TMP DP  RH WIND       PRES   REMARKS
BECKLEY        PTCLDY    74  69  85 SW3       30.05R
LOGAN            N/A     79  73  83 S6        29.98R
BLUEFIELD      PTCLDY    74  66  76 W6        30.08S
LEWISBURG      PTCLDY    71  70  95 N5        30.05R
$$

WVZ047-180200-
Northern Mountains of West Virginia

CITY           SKY/WX    TMP DP  RH WIND       PRES   REMARKS
ELKINS         CLOUDY    75  68  78 SE6       30.01R
$$

WVZ052-180200-
Eastern Panhandle of West Virginia

CITY           SKY/WX    TMP DP  RH WIND       PRES   REMARKS
MARTINSBURG    PTCLDY    80  74  81 CALM      29.91R
PETERSBURG     CLOUDY    81  74  79 S7        29.94R
$$




USA.gov is the U.S. government's official web portal to all federal, state and local government web resources and services.